Date String (YYYY-MM-DD hh:mm:ss) UTC,Instrument flags,Ambient pressure (hPa),Sample flow (lpm),Bypass flow (lpm),Sample temperature (°C),Ambient temperature (°C),ASC tube jacket temperature (°C),LED temperature (°C),Box temperature (°C),Sample RH (%),Span deviation,Mass concentration (μg/m³),Mass concentration (μg/m³),Mass concentration (μg/m³)
DateTimeUTC,F1_M11,P_M11,Q1_M11,Q2_M11,T1_M11,T2_M11,T3_M11,T4_M11,T5_M11,U1_M11,ZSPAN_M11,X0_M11,X2_M11,X1_M11
2022-05-10 11:00:00,,0825.2,4.98,0.00,27.3,26.5,00.0,36.2,29.1,13.4,0000.0,0016.35,0005.35,0001.99
2022-05-10 11:01:00,,0825.3,5.01,0.00,27.3,26.5,00.0,36.2,29.1,13.0,0000.0,0015.90,0005.29,0002.01
2022-05-10 11:02:00,,0825.3,4.98,0.00,27.3,26.5,00.0,36.2,29.2,12.9,0000.0,0015.48,0005.24,0002.02
2022-05-10 11:03:00,,0825.2,5.01,0.00,27.3,26.5,00.0,36.2,29.2,12.9,0000.0,0014.80,0005.20,0002.00
2022-05-10 11:04:00,,0825.3,5.00,0.00,27.3,26.5,00.0,36.2,29.2,12.9,0000.0,0013.98,0005.16,0002.00
2022-05-10 11:05:00,,0825.3,4.99,0.00,27.3,26.5,00.0,36.2,29.2,12.9,0000.0,0014.13,0005.12,0002.02
2022-05-10 11:06:00,,0825.3,5.00,0.00,27.3,26.5,00.0,36.2,29.2,12.7,0000.0,0014.46,0005.03,0002.02
2022-05-10 11:07:00,,0825.4,5.00,0.00,27.3,26.5,00.0,36.2,29.2,12.5,0000.0,0014.90,0004.97,0002.03
2022-05-10 11:08:00,,0825.3,5.00,0.00,27.3,26.5,00.0,36.2,29.2,12.3,0000.0,0015.18,0005.02,0002.03
2022-05-10 11:09:00,,0825.3,5.00,0.00,27.3,26.5,00.0,36.2,29.2,12.2,0000.0,0015.19,0004.97,0002.02
2022-05-10 11:10:00,,0825.3,4.99,0.00,27.3,26.5,00.0,36.2,29.2,12.2,0000.0,0015.17,0004.94,0002.03
2022-05-10 11:11:00,,0825.3,5.01,0.00,27.3,26.5,00.0,36.2,29.2,12.0,0000.0,0014.64,0004.92,0002.01
2022-05-10 11:12:00,,0825.3,4.99,0.00,27.3,26.5,00.0,36.2,29.2,12.0,0000.0,0014.56,0004.97,0002.01
2022-05-10 11:13:00,,0825.3,5.00,0.00,27.3,26.5,00.0,36.2,29.1,11.7,0000.0,0015.38,0004.99,0001.98
2022-05-10 11:14:00,,0825.4,5.02,0.00,27.3,26.5,00.0,36.2,29.1,11.9,0000.0,0015.78,0005.00,0001.98
2022-05-10 11:15:00,,0825.3,4.99,0.00,27.3,26.4,00.0,36.2,29.1,11.8,0000.0,0016.03,0005.05,0001.99
2022-05-10 11:16:00,,0825.3,5.01,0.00,27.3,26.5,00.0,36.2,29.1,11.8,0000.0,0015.65,0005.11,0001.96
2022-05-10 11:17:00,,0825.3,4.99,0.00,27.3,26.5,00.0,36.2,29.1,11.8,0000.0,0015.22,0005.05,0001.95
2022-05-10 11:18:00,,0825.4,5.02,0.00,27.3,26.5,00.0,36.2,29.1,11.8,0000.0,0014.45,0005.09,0001.93
2022-05-10 11:19:00,,0825.4,5.00,0.00,27.3,26.4,00.0,36.2,29.0,11.9,0000.0,0014.07,0005.03,0001.90
2022-05-10 11:20:00,,0825.4,5.00,0.00,27.2,26.4,00.0,36.2,29.0,11.9,0000.0,0014.00,0005.03,0001.88
2022-05-10 11:21:00,,0825.3,5.00,0.00,27.2,26.4,00.0,36.2,29.0,11.8,0000.0,0014.35,0005.07,0001.87
2022-05-10 11:22:00,,0825.4,5.00,0.00,27.2,26.4,00.0,36.2,29.0,11.7,0000.0,0014.77,0005.06,0001.88
2022-05-10 11:23:00,,0825.4,5.01,0.00,27.2,26.4,00.0,36.2,29.1,11.7,0000.0,0015.12,0004.95,0001.87
2022-05-10 11:24:00,,0825.4,5.00,0.00,27.2,26.4,00.0,36.2,29.1,11.8,0000.0,0014.62,0005.00,0001.87
2022-05-10 11:25:00,,0825.5,5.00,0.00,27.2,26.4,00.0,36.2,29.1,11.7,0000.0,0014.24,0004.99,0001.87
2022-05-10 11:26:00,,0825.5,5.00,0.00,27.2,26.4,00.0,36.2,29.1,11.7,0000.0,0014.16,0004.92,0001.86
2022-05-10 11:27:00,,0825.5,4.99,0.00,27.2,26.4,00.0,36.2,29.1,11.7,0000.0,0013.76,0004.78,0001.84
2022-05-10 11:28:00,,0825.5,5.01,0.00,27.2,26.4,00.0,36.2,29.1,11.7,0000.0,0013.95,0004.76,0001.83
2022-05-10 11:29:00,,0825.5,5.00,0.00,27.2,26.4,00.0,36.2,29.1,11.7,0000.0,0014.20,0004.71,0001.83
2022-05-10 11:30:00,,0825.5,5.01,0.00,27.2,26.4,00.0,36.2,29.1,11.7,0000.0,0014.22,0004.69,0001.82
2022-05-10 11:31:00,,0825.5,4.99,0.00,27.2,26.4,00.0,36.2,29.1,11.7,0000.0,0014.55,0004.66,0001.82
2022-05-10 11:32:00,,0825.6,5.02,0.00,27.3,26.4,00.0,36.2,29.1,11.7,0000.0,0014.19,0004.61,0001.82
2022-05-10 11:33:00,,0825.6,4.99,0.00,27.2,26.4,00.0,36.2,29.1,11.5,0000.0,0013.85,0004.56,0001.81
2022-05-10 11:34:00,,0825.5,5.00,0.00,27.2,26.4,00.0,36.2,29.1,11.6,0000.0,0013.52,0004.60,0001.82
2022-05-10 11:35:00,,0825.5,5.01,0.00,27.2,26.4,00.0,36.2,29.1,11.5,0000.0,0013.87,0004.56,0001.84
2022-05-10 11:36:00,,0825.6,5.00,0.00,27.2,26.4,00.0,36.2,29.0,11.5,0000.0,0014.32,0004.56,0001.85
2022-05-10 11:37:00,,0825.6,5.00,0.00,27.2,26.4,00.0,36.2,29.0,11.5,0000.0,0014.59,0004.58,0001.85
2022-05-10 11:38:00,,0825.6,5.01,0.00,27.2,26.4,00.0,36.2,29.0,11.6,0000.0,0014.81,0004.59,0001.86
2022-05-10 11:39:00,,0825.6,5.00,0.00,27.2,26.4,00.0,36.2,29.0,11.6,0000.0,0015.85,0004.65,0001.85
2022-05-10 11:40:00,,0825.5,5.00,0.00,27.2,26.4,00.0,36.1,29.0,11.6,0000.0,0015.64,0004.67,0001.86
2022-05-10 11:41:00,,0825.6,5.01,0.00,27.2,26.4,00.0,36.1,29.0,11.5,0000.0,0015.55,0004.67,0001.88
2022-05-10 11:42:00,,0825.6,4.99,0.00,27.2,26.4,00.0,36.1,29.0,11.5,0000.0,0015.49,0004.68,0001.88
2022-05-10 11:43:00,,0825.6,5.01,0.00,27.2,26.4,00.0,36.1,29.0,11.6,0000.0,0015.06,0004.70,0001.87
2022-05-10 11:44:00,,0825.6,5.01,0.00,27.2,26.3,00.0,36.1,29.0,11.6,0000.0,0015.11,0004.77,0001.88
2022-05-10 11:45:00,,0825.6,4.99,0.00,27.2,26.3,00.0,36.1,29.0,11.6,0000.0,0015.02,0004.74,0001.87
2022-05-10 11:46:00,,0825.6,5.01,0.00,27.2,26.3,00.0,36.1,29.0,11.7,0000.0,0014.50,0004.74,0001.88
2022-05-10 11:47:00,,0825.6,4.99,0.00,27.2,26.3,00.0,36.1,29.0,11.7,0000.0,0014.36,0004.76,0001.87
2022-05-10 11:48:00,,0825.6,5.01,0.00,27.2,26.4,00.0,36.1,29.0,11.7,0000.0,0013.59,0004.76,0001.86
2022-05-10 11:49:00,,0825.6,5.00,0.00,27.2,26.4,00.0,36.1,29.0,11.7,0000.0,0014.14,0004.80,0001.85
2022-05-10 11:50:00,,0825.6,5.00,0.00,27.2,26.4,00.0,36.1,29.1,11.6,0000.0,0013.55,0004.79,0001.85
2022-05-10 11:51:00,,0825.7,5.00,0.00,27.2,26.4,00.0,36.1,29.0,11.6,0000.0,0013.10,0004.84,0001.84
2022-05-10 11:52:00,,0825.7,5.01,0.00,27.2,26.4,00.0,36.1,29.1,11.7,0000.0,0013.11,0004.81,0001.81
2022-05-10 11:53:00,,0825.7,4.98,0.00,27.2,26.4,00.0,36.1,29.1,11.7,0000.0,0013.02,0004.82,0001.81
2022-05-10 11:54:00,,0825.7,5.00,0.00,27.2,26.4,00.0,36.1,29.1,11.6,0000.0,0012.97,0004.82,0001.84
2022-05-10 11:55:00,,0825.7,5.01,0.00,27.2,26.4,00.0,36.1,29.1,11.5,0000.0,0012.94,0004.78,0001.82
2022-05-10 11:56:00,,0825.7,5.00,0.00,27.2,26.4,00.0,36.1,29.1,11.5,0000.0,0013.48,0004.84,0001.83
2022-05-10 11:57:00,,0825.7,5.00,0.00,27.2,26.4,00.0,36.1,29.1,11.5,0000.0,0014.22,0004.84,0001.82
2022-05-10 11:58:00,,0825.7,5.00,0.00,27.2,26.4,00.0,36.1,29.1,11.6,0000.0,0014.83,0004.88,0001.81
2022-05-10 11:59:00,,0825.7,4.99,0.00,27.2,26.4,00.0,36.1,29.1,11.6,0000.0,0014.96,0004.92,0001.80
